contact:dominique.lefevre@mio.osupytheas.fr, maurice.libes@osupytheas.fr, didier.mallarino@osupytheas.fr
Project:EMSO http://www.emso-fr.org/EMSO-France
Depth: 2436.0 m
Title:EMSO Ligure Ouest : Data MII capteur MICROCAT
DateTime_Computer,Latitude,Longitude,Temperature,Conductivity,Pressure,DateTime_Instrument
DateTime_Computer,Latitude,Longitude,degC,S m-1,dbar,DateTime_Instrument
2019-09-14T00:00:03Z,42.805,6.029,13.2954,4.59956,2469.876,2019-9-14T02:00:26Z
2019-09-14T00:03:06Z,42.805,6.029,13.2955,4.59955,2469.9,2019-9-14T02:03:29Z
2019-09-14T00:06:09Z,42.805,6.029,13.2955,4.59956,2469.89,2019-9-14T02:06:32Z
2019-09-14T00:09:12Z,42.805,6.029,13.2953,4.59962,2469.89,2019-9-14T02:09:35Z
2019-09-14T00:12:15Z,42.805,6.029,13.2953,4.59953,2469.9,2019-9-14T02:12:38Z
2019-09-14T00:15:19Z,42.805,6.029,13.2955,4.59953,2469.876,2019-9-14T02:15:42Z
2019-09-14T00:18:22Z,42.805,6.029,13.2955,4.59959,2469.89,2019-9-14T02:18:45Z
2019-09-14T00:21:25Z,42.805,6.029,13.2955,4.59954,2469.89,2019-9-14T02:21:48Z
2019-09-14T00:24:28Z,42.805,6.029,13.2953,4.59954,2469.914,2019-9-14T02:24:51Z
2019-09-14T00:27:31Z,42.805,6.029,13.2958,4.59953,2469.9,2019-9-14T02:27:54Z
2019-09-14T00:30:35Z,42.805,6.029,13.2958,4.59954,2469.89,2019-9-14T02:30:58Z
2019-09-14T00:33:38Z,42.805,6.029,13.2955,4.59952,2469.876,2019-9-14T02:34:01Z
2019-09-14T00:36:41Z,42.805,6.029,13.2959,4.59954,2469.867,2019-9-14T02:37:04Z
2019-09-14T00:39:44Z,42.805,6.029,13.2959,4.59953,2469.9,2019-9-14T02:40:07Z
2019-09-14T00:42:47Z,42.805,6.029,13.2956,4.59953,2469.89,2019-9-14T02:43:10Z
2019-09-14T00:45:51Z,42.805,6.029,13.2956,4.59958,2469.876,2019-9-14T02:46:14Z
2019-09-14T00:48:54Z,42.805,6.029,13.2955,4.59954,2469.89,2019-9-14T02:49:17Z
2019-09-14T00:51:57Z,42.805,6.029,13.2954,4.59953,2469.89,2019-9-14T02:52:20Z
2019-09-14T00:55:00Z,42.805,6.029,13.2958,4.59953,2469.914,2019-9-14T02:55:23Z
2019-09-14T00:58:04Z,42.805,6.029,13.2953,4.59954,2469.876,2019-9-14T02:58:26Z
2019-09-14T01:01:07Z,42.805,6.029,13.2956,4.59953,2469.853,2019-9-14T03:01:30Z
2019-09-14T01:04:10Z,42.805,6.029,13.2951,4.59953,2469.853,2019-9-14T03:04:33Z
2019-09-14T01:07:13Z,42.805,6.029,13.2957,4.59952,2469.844,2019-9-14T03:07:36Z
2019-09-14T01:10:16Z,42.805,6.029,13.2955,4.59956,2469.876,2019-9-14T03:10:39Z
2019-09-14T01:13:20Z,42.805,6.029,13.2954,4.59953,2469.867,2019-9-14T03:13:42Z
2019-09-14T01:16:23Z,42.805,6.029,13.2959,4.59953,2469.876,2019-9-14T03:16:46Z
2019-09-14T01:19:26Z,42.805,6.029,13.2954,4.59955,2469.853,2019-9-14T03:19:49Z
2019-09-14T01:22:29Z,42.805,6.029,13.2955,4.59952,2469.806,2019-9-14T03:22:52Z
2019-09-14T01:25:32Z,42.805,6.029,13.2953,4.59951,2469.844,2019-9-14T03:25:55Z
2019-09-14T01:28:35Z,42.805,6.029,13.2958,4.59951,2469.867,2019-9-14T03:28:58Z
2019-09-14T01:31:39Z,42.805,6.029,13.2955,4.59954,2469.853,2019-9-14T03:32:02Z
2019-09-14T01:34:42Z,42.805,6.029,13.2957,4.59953,2469.867,2019-9-14T03:35:05Z
2019-09-14T01:37:45Z,42.805,6.029,13.2957,4.59953,2469.83,2019-9-14T03:38:08Z
2019-09-14T01:40:48Z,42.805,6.029,13.2958,4.59954,2469.821,2019-9-14T03:41:11Z
2019-09-14T01:43:51Z,42.805,6.029,13.2957,4.59953,2469.89,2019-9-14T03:44:14Z
2019-09-14T01:46:55Z,42.805,6.029,13.2958,4.59951,2469.844,2019-9-14T03:47:18Z
2019-09-14T01:49:58Z,42.805,6.029,13.2955,4.59951,2469.853,2019-9-14T03:50:21Z
2019-09-14T01:53:01Z,42.805,6.029,13.2953,4.59954,2469.89,2019-9-14T03:53:24Z
2019-09-14T01:56:04Z,42.805,6.029,13.2953,4.59958,2469.853,2019-9-14T03:56:27Z
2019-09-14T01:59:07Z,42.805,6.029,13.2955,4.59952,2469.83,2019-9-14T03:59:30Z
2019-09-14T02:02:11Z,42.805,6.029,13.2956,4.59952,2469.867,2019-9-14T04:02:34Z
2019-09-14T02:05:14Z,42.805,6.029,13.2956,4.59954,2469.83,2019-9-14T04:05:37Z
2019-09-14T02:08:18Z,42.805,6.029,13.2958,4.59953,2469.853,2019-9-14T04:08:40Z
2019-09-14T02:11:21Z,42.805,6.029,13.2952,4.59952,2469.83,2019-9-14T04:11:44Z
2019-09-14T02:14:24Z,42.805,6.029,13.2955,4.59954,2469.867,2019-9-14T04:14:47Z
2019-09-14T02:17:27Z,42.805,6.029,13.2953,4.59953,2469.89,2019-9-14T04:17:50Z
2019-09-14T02:20:30Z,42.805,6.029,13.2957,4.59955,2469.853,2019-9-14T04:20:53Z
2019-09-14T02:23:33Z,42.805,6.029,13.2958,4.59954,2469.853,2019-9-14T04:23:56Z
2019-09-14T02:26:37Z,42.805,6.029,13.2959,4.59952,2469.821,2019-9-14T04:27:00Z
2019-09-14T02:29:40Z,42.805,6.029,13.2957,4.59952,2469.853,2019-9-14T04:30:03Z
2019-09-14T02:32:43Z,42.805,6.029,13.2958,4.59953,2469.867,2019-9-14T04:33:06Z
2019-09-14T02:35:46Z,42.805,6.029,13.2959,4.59954,2469.83,2019-9-14T04:36:09Z
2019-09-14T02:38:49Z,42.805,6.029,13.2960,4.59960,2469.867,2019-9-14T04:39:12Z
2019-09-14T02:41:53Z,42.805,6.029,13.2959,4.59953,2469.867,2019-9-14T04:42:16Z
2019-09-14T02:44:56Z,42.805,6.029,13.2955,4.59951,2469.83,2019-9-14T04:45:19Z
2019-09-14T02:47:59Z,42.805,6.029,13.2955,4.59953,2469.853,2019-9-14T04:48:22Z
2019-09-14T02:51:02Z,42.805,6.029,13.2957,4.59952,2469.876,2019-9-14T04:51:25Z
2019-09-14T02:54:05Z,42.805,6.029,13.2955,4.59954,2469.853,2019-9-14T04:54:28Z
2019-09-14T02:57:09Z,42.805,6.029,13.2956,4.59953,2469.853,2019-9-14T04:57:32Z
2019-09-14T03:00:12Z,42.805,6.029,13.2953,4.59954,2469.806,2019-9-14T05:00:35Z
2019-09-14T03:03:15Z,42.805,6.029,13.2958,4.59951,2469.853,2019-9-14T05:03:38Z
2019-09-14T03:06:18Z,42.805,6.029,13.2957,4.59952,2469.876,2019-9-14T05:06:41Z
2019-09-14T03:09:21Z,42.805,6.029,13.2957,4.59952,2469.867,2019-9-14T05:09:44Z
2019-09-14T03:12:25Z,42.805,6.029,13.2953,4.59952,2469.853,2019-9-14T05:12:48Z
2019-09-14T03:15:28Z,42.805,6.029,13.2953,4.59953,2469.867,2019-9-14T05:15:51Z
2019-09-14T03:18:31Z,42.805,6.029,13.2957,4.59952,2469.89,2019-9-14T05:18:54Z
2019-09-14T03:21:34Z,42.805,6.029,13.2957,4.59952,2469.853,2019-9-14T05:21:57Z
2019-09-14T03:24:37Z,42.805,6.029,13.2961,4.59953,2469.876,2019-9-14T05:25:00Z
2019-09-14T03:27:41Z,42.805,6.029,13.2955,4.59954,2469.844,2019-9-14T05:28:04Z
2019-09-14T03:30:44Z,42.805,6.029,13.2955,4.59954,2469.923,2019-9-14T05:31:07Z
2019-09-14T03:33:47Z,42.805,6.029,13.2956,4.59952,2469.89,2019-9-14T05:34:10Z
2019-09-14T03:36:50Z,42.805,6.029,13.2953,4.59952,2469.867,2019-9-14T05:37:13Z
2019-09-14T03:39:53Z,42.805,6.029,13.2954,4.59961,2469.89,2019-9-14T05:40:16Z
2019-09-14T03:42:57Z,42.805,6.029,13.2955,4.59952,2469.853,2019-9-14T05:43:20Z
2019-09-14T03:46:00Z,42.805,6.029,13.2956,4.59953,2469.89,2019-9-14T05:46:23Z
2019-09-14T03:49:03Z,42.805,6.029,13.2955,4.59952,2469.867,2019-9-14T05:49:26Z
2019-09-14T03:52:06Z,42.805,6.029,13.2954,4.59951,2469.876,2019-9-14T05:52:29Z
2019-09-14T03:55:10Z,42.805,6.029,13.2955,4.59954,2469.876,2019-9-14T05:55:32Z
2019-09-14T03:58:13Z,42.805,6.029,13.2952,4.59952,2469.876,2019-9-14T05:58:36Z
2019-09-14T04:01:16Z,42.805,6.029,13.2954,4.59956,2469.876,2019-9-14T06:01:39Z
2019-09-14T04:04:19Z,42.805,6.029,13.2960,4.59952,2469.853,2019-9-14T06:04:42Z
2019-09-14T04:07:22Z,42.805,6.029,13.2954,4.59953,2469.876,2019-9-14T06:07:45Z
2019-09-14T04:10:26Z,42.805,6.029,13.2955,4.59952,2469.9,2019-9-14T06:10:49Z
2019-09-14T04:13:29Z,42.805,6.029,13.2955,4.59953,2469.89,2019-9-14T06:13:52Z
2019-09-14T04:16:32Z,42.805,6.029,13.2952,4.59957,2469.876,2019-9-14T06:16:55Z
2019-09-14T04:19:35Z,42.805,6.029,13.2957,4.59953,2469.876,2019-9-14T06:19:58Z
2019-09-14T04:22:38Z,42.805,6.029,13.2954,4.59954,2469.9,2019-9-14T06:23:01Z
2019-09-14T04:25:42Z,42.805,6.029,13.2958,4.59952,2469.876,2019-9-14T06:26:05Z
2019-09-14T04:28:45Z,42.805,6.029,13.2953,4.59954,2469.89,2019-9-14T06:29:08Z
2019-09-14T04:31:48Z,42.805,6.029,13.2954,4.59956,2469.923,2019-9-14T06:32:11Z
2019-09-14T04:34:51Z,42.805,6.029,13.2954,4.59954,2469.914,2019-9-14T06:35:14Z
2019-09-14T04:37:55Z,42.805,6.029,13.2955,4.59955,2469.914,2019-9-14T06:38:18Z
2019-09-14T04:40:58Z,42.805,6.029,13.2956,4.59953,2469.914,2019-9-14T06:41:21Z
2019-09-14T04:44:01Z,42.805,6.029,13.2957,4.59953,2469.914,2019-9-14T06:44:24Z
2019-09-14T04:47:04Z,42.805,6.029,13.2958,4.59953,2469.923,2019-9-14T06:47:27Z
2019-09-14T04:50:07Z,42.805,6.029,13.2957,4.59952,2469.914,2019-9-14T06:50:30Z
2019-09-14T04:53:11Z,42.805,6.029,13.2958,4.59952,2469.914,2019-9-14T06:53:34Z
2019-09-14T04:56:14Z,42.805,6.029,13.2958,4.59954,2469.923,2019-9-14T06:56:37Z
2019-09-14T04:59:17Z,42.805,6.029,13.2955,4.59953,2469.937,2019-9-14T06:59:40Z
2019-09-14T05:02:20Z,42.805,6.029,13.2954,4.59958,2469.923,2019-9-14T07:02:43Z
2019-09-14T05:05:23Z,42.805,6.029,13.2953,4.59954,2469.937,2019-9-14T07:05:46Z
2019-09-14T05:08:27Z,42.805,6.029,13.2955,4.59954,2469.9,2019-9-14T07:08:50Z
2019-09-14T05:11:30Z,42.805,6.029,13.2955,4.59954,2469.96,2019-9-14T07:11:53Z
2019-09-14T05:14:33Z,42.805,6.029,13.2954,4.59954,2469.947,2019-9-14T07:14:56Z
2019-09-14T05:17:36Z,42.805,6.029,13.2953,4.59954,2469.947,2019-9-14T07:17:59Z
2019-09-14T05:20:40Z,42.805,6.029,13.2958,4.59956,2469.923,2019-9-14T07:21:03Z
2019-09-14T05:23:43Z,42.805,6.029,13.2957,4.59954,2469.96,2019-9-14T07:24:06Z
2019-09-14T05:26:46Z,42.805,6.029,13.2954,4.59956,2469.914,2019-9-14T07:27:09Z
2019-09-14T05:29:49Z,42.805,6.029,13.2957,4.59955,2469.923,2019-9-14T07:30:12Z
2019-09-14T05:32:52Z,42.805,6.029,13.2953,4.59955,2469.96,2019-9-14T07:33:15Z
2019-09-14T05:35:56Z,42.805,6.029,13.2957,4.59954,2469.96,2019-9-14T07:36:19Z
2019-09-14T05:38:59Z,42.805,6.029,13.2958,4.59952,2469.947,2019-9-14T07:39:22Z
2019-09-14T05:42:02Z,42.805,6.029,13.2953,4.59952,2469.947,2019-9-14T07:42:25Z
2019-09-14T05:45:05Z,42.805,6.029,13.2955,4.59953,2469.96,2019-9-14T07:45:28Z
2019-09-14T05:48:08Z,42.805,6.029,13.2953,4.59952,2469.947,2019-9-14T07:48:31Z
2019-09-14T05:51:12Z,42.805,6.029,13.2956,4.59953,2469.96,2019-9-14T07:51:35Z
2019-09-14T05:54:15Z,42.805,6.029,13.2955,4.59952,2469.947,2019-9-14T07:54:38Z
2019-09-14T05:57:18Z,42.805,6.029,13.2954,4.59954,2469.937,2019-9-14T07:57:41Z
2019-09-14T06:00:21Z,42.805,6.029,13.2957,4.59955,2469.947,2019-9-14T08:00:44Z
2019-09-14T06:03:24Z,42.805,6.029,13.2957,4.59953,2469.97,2019-9-14T08:03:47Z
2019-09-14T06:06:28Z,42.805,6.029,13.2957,4.59954,2469.947,2019-9-14T08:06:51Z
2019-09-14T06:09:31Z,42.805,6.029,13.2952,4.59955,2469.947,2019-9-14T08:09:54Z
2019-09-14T06:12:34Z,42.805,6.029,13.2955,4.59954,2469.947,2019-9-14T08:12:57Z
2019-09-14T06:15:37Z,42.805,6.029,13.2955,4.59955,2469.96,2019-9-14T08:16:00Z
2019-09-14T06:18:40Z,42.805,6.029,13.2953,4.59954,2469.947,2019-9-14T08:19:03Z
2019-09-14T06:21:44Z,42.805,6.029,13.2953,4.59956,2469.993,2019-9-14T08:22:07Z
2019-09-14T06:24:47Z,42.805,6.029,13.2955,4.59955,2469.993,2019-9-14T08:25:10Z
2019-09-14T06:27:50Z,42.805,6.029,13.2957,4.59958,2470.007,2019-9-14T08:28:13Z
2019-09-14T06:30:53Z,42.805,6.029,13.2957,4.59957,2469.97,2019-9-14T08:31:16Z
2019-09-14T06:33:57Z,42.805,6.029,13.2955,4.59954,2470.007,2019-9-14T08:34:20Z
2019-09-14T06:37:00Z,42.805,6.029,13.2954,4.59955,2470.007,2019-9-14T08:37:23Z
2019-09-14T06:40:03Z,42.805,6.029,13.2958,4.59954,2469.984,2019-9-14T08:40:26Z
2019-09-14T06:43:06Z,42.805,6.029,13.2956,4.59954,2469.97,2019-9-14T08:43:29Z
2019-09-14T06:46:09Z,42.805,6.029,13.2952,4.59953,2469.984,2019-9-14T08:46:32Z
2019-09-14T06:49:13Z,42.805,6.029,13.2959,4.59954,2469.984,2019-9-14T08:49:36Z
2019-09-14T06:52:16Z,42.805,6.029,13.2959,4.59955,2469.97,2019-9-14T08:52:39Z
2019-09-14T06:55:19Z,42.805,6.029,13.2957,4.59954,2470.03,2019-9-14T08:55:42Z
2019-09-14T06:58:22Z,42.805,6.029,13.2956,4.59957,2469.97,2019-9-14T08:58:45Z
2019-09-14T07:01:26Z,42.805,6.029,13.2954,4.59956,2469.97,2019-9-14T09:01:49Z
2019-09-14T07:04:29Z,42.805,6.029,13.2953,4.59956,2469.993,2019-9-14T09:04:52Z
2019-09-14T07:07:32Z,42.805,6.029,13.2957,4.59957,2469.984,2019-9-14T09:07:55Z
2019-09-14T07:10:35Z,42.805,6.029,13.2961,4.59956,2469.993,2019-9-14T09:10:58Z
2019-09-14T07:13:38Z,42.805,6.029,13.2960,4.59956,2469.993,2019-9-14T09:14:01Z
2019-09-14T07:16:42Z,42.805,6.029,13.2955,4.59955,2469.97,2019-9-14T09:17:05Z
2019-09-14T07:19:45Z,42.805,6.029,13.2957,4.59954,2469.993,2019-9-14T09:20:08Z
2019-09-14T07:22:48Z,42.805,6.029,13.2963,4.59985,2469.984,2019-9-14T09:23:11Z
2019-09-14T07:25:51Z,42.805,6.029,13.2956,4.59958,2470.007,2019-9-14T09:26:14Z
2019-09-14T07:28:54Z,42.805,6.029,13.2954,4.59954,2469.97,2019-9-14T09:29:17Z
2019-09-14T07:31:58Z,42.805,6.029,13.2952,4.59956,2470.017,2019-9-14T09:32:21Z
2019-09-14T07:35:01Z,42.805,6.029,13.2953,4.59954,2470.017,2019-9-14T09:35:24Z
2019-09-14T07:38:04Z,42.805,6.029,13.2960,4.59956,2469.984,2019-9-14T09:38:27Z
2019-09-14T07:41:07Z,42.805,6.029,13.2957,4.59955,2470.007,2019-9-14T09:41:30Z
2019-09-14T07:44:10Z,42.805,6.029,13.2953,4.59956,2469.993,2019-9-14T09:44:33Z
2019-09-14T07:47:14Z,42.805,6.029,13.2954,4.59954,2470.007,2019-9-14T09:47:37Z
2019-09-14T07:50:17Z,42.805,6.029,13.2955,4.59955,2469.984,2019-9-14T09:50:40Z
2019-09-14T07:53:20Z,42.805,6.029,13.2955,4.59954,2469.993,2019-9-14T09:53:43Z
2019-09-14T07:56:23Z,42.805,6.029,13.2962,4.59985,2469.984,2019-9-14T09:56:46Z
2019-09-14T07:59:26Z,42.805,6.029,13.2974,4.59992,2469.993,2019-9-14T09:59:49Z
2019-09-14T08:02:30Z,42.805,6.029,13.2973,4.59990,2469.97,2019-9-14T10:02:53Z
2019-09-14T08:05:33Z,42.805,6.029,13.2971,4.59973,2469.984,2019-9-14T10:05:56Z
2019-09-14T08:08:36Z,42.805,6.029,13.2983,4.59988,2469.96,2019-9-14T10:08:59Z
2019-09-14T08:11:39Z,42.805,6.029,13.2976,4.59971,2470.007,2019-9-14T10:12:02Z
2019-09-14T08:14:43Z,42.805,6.029,13.2989,4.59988,2469.97,2019-9-14T10:15:06Z
2019-09-14T08:17:46Z,42.805,6.029,13.2968,4.59970,2469.947,2019-9-14T10:18:09Z
2019-09-14T08:20:49Z,42.805,6.029,13.2964,4.59975,2469.97,2019-9-14T10:21:12Z
2019-09-14T08:23:52Z,42.805,6.029,13.2978,4.59986,2469.984,2019-9-14T10:24:15Z
2019-09-14T08:26:56Z,42.805,6.029,13.2990,4.59968,2470.007,2019-9-14T10:27:19Z
2019-09-14T08:29:59Z,42.805,6.029,13.2976,4.59984,2469.96,2019-9-14T10:30:22Z
2019-09-14T08:33:02Z,42.805,6.029,13.2990,4.60007,2469.97,2019-9-14T10:33:25Z
2019-09-14T08:36:05Z,42.805,6.029,13.2993,4.60014,2469.97,2019-9-14T10:36:28Z
2019-09-14T08:39:09Z,42.805,6.029,13.2966,4.59956,2469.984,2019-9-14T10:39:32Z
2019-09-14T08:42:12Z,42.805,6.029,13.2955,4.59956,2469.984,2019-9-14T10:42:35Z
2019-09-14T08:45:15Z,42.805,6.029,13.2987,4.59981,2469.984,2019-9-14T10:45:38Z
2019-09-14T08:48:18Z,42.805,6.029,13.2961,4.59975,2469.97,2019-9-14T10:48:41Z
2019-09-14T08:51:22Z,42.805,6.029,13.2962,4.59961,2469.97,2019-9-14T10:51:45Z
2019-09-14T08:54:25Z,42.805,6.029,13.2954,4.59961,2469.984,2019-9-14T10:54:48Z
2019-09-14T08:57:28Z,42.805,6.029,13.2971,4.59958,2469.96,2019-9-14T10:57:51Z
2019-09-14T09:00:31Z,42.805,6.029,13.2965,4.59970,2469.97,2019-9-14T11:00:54Z
2019-09-14T09:03:34Z,42.805,6.029,13.2960,4.59989,2469.947,2019-9-14T11:03:57Z
2019-09-14T09:06:38Z,42.805,6.029,13.2962,4.59966,2469.96,2019-9-14T11:07:01Z
2019-09-14T09:09:41Z,42.805,6.029,13.2979,4.59963,2469.947,2019-9-14T11:10:04Z
2019-09-14T09:12:44Z,42.805,6.029,13.2956,4.59956,2469.947,2019-9-14T11:13:07Z
2019-09-14T09:15:47Z,42.805,6.029,13.2954,4.59957,2469.947,2019-9-14T11:16:10Z
2019-09-14T09:18:50Z,42.805,6.029,13.2952,4.59958,2469.947,2019-9-14T11:19:13Z
2019-09-14T09:21:54Z,42.805,6.029,13.2963,4.59960,2469.96,2019-9-14T11:22:17Z
2019-09-14T09:24:57Z,42.805,6.029,13.2959,4.59954,2469.923,2019-9-14T11:25:20Z
2019-09-14T09:28:00Z,42.805,6.029,13.2968,4.59968,2469.9,2019-9-14T11:28:23Z
2019-09-14T09:31:03Z,42.805,6.029,13.2973,4.59999,2469.923,2019-9-14T11:31:26Z
2019-09-14T09:34:06Z,42.805,6.029,13.2986,4.59978,2469.9,2019-9-14T11:34:29Z
2019-09-14T09:37:10Z,42.805,6.029,13.2982,4.60002,2469.923,2019-9-14T11:37:33Z
2019-09-14T09:40:13Z,42.805,6.029,13.2994,4.60021,2469.937,2019-9-14T11:40:36Z
2019-09-14T09:43:16Z,42.805,6.029,13.2974,4.59987,2469.914,2019-9-14T11:43:39Z
2019-09-14T09:46:19Z,42.805,6.029,13.2986,4.59981,2469.876,2019-9-14T11:46:42Z
2019-09-14T09:49:22Z,42.805,6.029,13.2984,4.59985,2469.923,2019-9-14T11:49:45Z
2019-09-14T09:52:26Z,42.805,6.029,13.2964,4.59964,2469.9,2019-9-14T11:52:49Z
2019-09-14T09:55:29Z,42.805,6.029,13.2974,4.59970,2469.923,2019-9-14T11:55:52Z
2019-09-14T09:58:32Z,42.805,6.029,13.2963,4.59990,2469.89,2019-9-14T11:58:55Z
2019-09-14T10:01:35Z,42.805,6.029,13.2989,4.59997,2469.9,2019-9-14T12:01:58Z
2019-09-14T10:04:38Z,42.805,6.029,13.2980,4.59988,2469.9,2019-9-14T12:05:01Z
2019-09-14T10:07:42Z,42.805,6.029,13.2961,4.59975,2469.937,2019-9-14T12:08:05Z
2019-09-14T10:10:45Z,42.805,6.029,13.2954,4.59960,2469.914,2019-9-14T12:11:08Z
2019-09-14T10:13:48Z,42.805,6.029,13.2974,4.59981,2469.923,2019-9-14T12:14:11Z
2019-09-14T10:16:51Z,42.805,6.029,13.2966,4.59968,2469.89,2019-9-14T12:17:14Z
2019-09-14T10:19:55Z,42.805,6.029,13.2967,4.59961,2469.9,2019-9-14T12:20:17Z
2019-09-14T10:22:58Z,42.805,6.029,13.2984,4.59978,2469.914,2019-9-14T12:23:21Z
2019-09-14T10:26:01Z,42.805,6.029,13.2990,4.59971,2469.876,2019-9-14T12:26:24Z
2019-09-14T10:29:05Z,42.805,6.029,13.2956,4.59967,2469.914,2019-9-14T12:29:27Z
2019-09-14T10:32:08Z,42.805,6.029,13.2953,4.59961,2469.89,2019-9-14T12:32:31Z
2019-09-14T10:35:11Z,42.805,6.029,13.2964,4.59961,2469.914,2019-9-14T12:35:34Z
2019-09-14T10:38:14Z,42.805,6.029,13.2951,4.59963,2469.876,2019-9-14T12:38:37Z
2019-09-14T10:41:17Z,42.805,6.029,13.2954,4.59958,2469.89,2019-9-14T12:41:40Z
2019-09-14T10:44:21Z,42.805,6.029,13.2955,4.59956,2469.89,2019-9-14T12:44:44Z
2019-09-14T10:47:24Z,42.805,6.029,13.2957,4.59964,2469.89,2019-9-14T12:47:47Z
2019-09-14T10:50:27Z,42.805,6.029,13.2957,4.59961,2469.876,2019-9-14T12:50:50Z
2019-09-14T10:53:30Z,42.805,6.029,13.2953,4.59956,2469.89,2019-9-14T12:53:53Z
2019-09-14T10:56:33Z,42.805,6.029,13.2957,4.59955,2469.89,2019-9-14T12:56:56Z
2019-09-14T10:59:37Z,42.805,6.029,13.2957,4.59959,2469.853,2019-9-14T13:00:00Z
2019-09-14T11:02:40Z,42.805,6.029,13.2958,4.59958,2469.876,2019-9-14T13:03:03Z
2019-09-14T11:05:43Z,42.805,6.029,13.2954,4.59955,2469.853,2019-9-14T13:06:06Z
2019-09-14T11:08:46Z,42.805,6.029,13.2953,4.59957,2469.867,2019-9-14T13:09:09Z
2019-09-14T11:11:49Z,42.805,6.029,13.2955,4.59955,2469.853,2019-9-14T13:12:12Z
2019-09-14T11:14:53Z,42.805,6.029,13.2952,4.59960,2469.853,2019-9-14T13:15:16Z
2019-09-14T11:17:56Z,42.805,6.029,13.2953,4.59956,2469.853,2019-9-14T13:18:19Z
2019-09-14T11:20:59Z,42.805,6.029,13.2956,4.59955,2469.821,2019-9-14T13:21:22Z
2019-09-14T11:24:02Z,42.805,6.029,13.2953,4.59956,2469.83,2019-9-14T13:24:25Z
2019-09-14T11:27:06Z,42.805,6.029,13.2956,4.59955,2469.876,2019-9-14T13:27:29Z
2019-09-14T11:30:09Z,42.805,6.029,13.2957,4.59957,2469.853,2019-9-14T13:30:32Z
2019-09-14T11:33:12Z,42.805,6.029,13.2953,4.59957,2469.853,2019-9-14T13:33:35Z
2019-09-14T11:36:15Z,42.805,6.029,13.2956,4.59956,2469.853,2019-9-14T13:36:38Z
2019-09-14T11:39:18Z,42.805,6.029,13.2954,4.59954,2469.83,2019-9-14T13:39:41Z
2019-09-14T11:42:22Z,42.805,6.029,13.2954,4.59954,2469.853,2019-9-14T13:42:45Z
2019-09-14T11:45:25Z,42.805,6.029,13.2958,4.59954,2469.867,2019-9-14T13:45:48Z
2019-09-14T11:48:28Z,42.805,6.029,13.2958,4.59954,2469.853,2019-9-14T13:48:51Z
2019-09-14T11:51:31Z,42.805,6.029,13.2957,4.59955,2469.853,2019-9-14T13:51:54Z
2019-09-14T11:54:34Z,42.805,6.029,13.2953,4.59953,2469.844,2019-9-14T13:54:57Z
2019-09-14T11:57:38Z,42.805,6.029,13.2955,4.59952,2469.83,2019-9-14T13:58:01Z
2019-09-14T12:00:41Z,42.805,6.029,13.2948,4.59954,2469.83,2019-9-14T14:01:04Z
2019-09-14T12:03:44Z,42.805,6.029,13.2955,4.59955,2469.853,2019-9-14T14:04:07Z
2019-09-14T12:06:47Z,42.805,6.029,13.2953,4.59953,2469.867,2019-9-14T14:07:10Z
2019-09-14T12:09:51Z,42.805,6.029,13.2955,4.59956,2469.83,2019-9-14T14:10:14Z
2019-09-14T12:12:54Z,42.805,6.029,13.2955,4.59954,2469.821,2019-9-14T14:13:17Z
2019-09-14T12:15:57Z,42.805,6.029,13.2958,4.59952,2469.806,2019-9-14T14:16:20Z
2019-09-14T12:19:00Z,42.805,6.029,13.2953,4.59954,2469.853,2019-9-14T14:19:23Z
2019-09-14T12:22:03Z,42.805,6.029,13.2954,4.59955,2469.844,2019-9-14T14:22:26Z
2019-09-14T12:25:07Z,42.805,6.029,13.2956,4.59954,2469.783,2019-9-14T14:25:30Z
2019-09-14T12:28:10Z,42.805,6.029,13.2955,4.59953,2469.797,2019-9-14T14:28:33Z
2019-09-14T12:31:13Z,42.805,6.029,13.2954,4.59952,2469.806,2019-9-14T14:31:36Z
2019-09-14T12:34:16Z,42.805,6.029,13.2956,4.59954,2469.806,2019-9-14T14:34:39Z
2019-09-14T12:37:20Z,42.805,6.029,13.2955,4.59955,2469.821,2019-9-14T14:37:43Z
2019-09-14T12:40:23Z,42.805,6.029,13.2956,4.59954,2469.797,2019-9-14T14:40:46Z
2019-09-14T12:43:26Z,42.805,6.029,13.2952,4.59952,2469.783,2019-9-14T14:43:49Z
2019-09-14T12:46:29Z,42.805,6.029,13.2956,4.59951,2469.844,2019-9-14T14:46:52Z
2019-09-14T12:49:33Z,42.805,6.029,13.2954,4.59951,2469.83,2019-9-14T14:49:56Z
2019-09-14T12:52:36Z,42.805,6.029,13.2951,4.59952,2469.844,2019-9-14T14:52:59Z
2019-09-14T12:55:39Z,42.805,6.029,13.2952,4.59952,2469.83,2019-9-14T14:56:02Z
2019-09-14T12:58:42Z,42.805,6.029,13.2957,4.59953,2469.821,2019-9-14T14:59:05Z
2019-09-14T13:01:45Z,42.805,6.029,13.2957,4.59953,2469.821,2019-9-14T15:02:09Z
2019-09-14T13:04:49Z,42.805,6.029,13.2958,4.59952,2469.821,2019-9-14T15:05:12Z
2019-09-14T13:07:52Z,42.805,6.029,13.2955,4.59952,2469.821,2019-9-14T15:08:15Z
2019-09-14T13:10:55Z,42.805,6.029,13.2958,4.59951,2469.821,2019-9-14T15:11:18Z
2019-09-14T13:13:58Z,42.805,6.029,13.2958,4.59951,2469.806,2019-9-14T15:14:21Z
2019-09-14T13:17:02Z,42.805,6.029,13.2956,4.59953,2469.797,2019-9-14T15:17:25Z
2019-09-14T13:20:05Z,42.805,6.029,13.2954,4.59951,2469.783,2019-9-14T15:20:28Z
2019-09-14T13:23:08Z,42.805,6.029,13.2952,4.59951,2469.783,2019-9-14T15:23:31Z
2019-09-14T13:26:11Z,42.805,6.029,13.2954,4.59957,2469.83,2019-9-14T15:26:34Z
2019-09-14T13:29:14Z,42.805,6.029,13.2952,4.59951,2469.806,2019-9-14T15:29:37Z
2019-09-14T13:32:18Z,42.805,6.029,13.2953,4.59952,2469.83,2019-9-14T15:32:41Z
2019-09-14T13:35:21Z,42.805,6.029,13.2955,4.59951,2469.783,2019-9-14T15:35:44Z
2019-09-14T13:38:24Z,42.805,6.029,13.2955,4.59952,2469.783,2019-9-14T15:38:47Z
2019-09-14T13:41:27Z,42.805,6.029,13.2956,4.59953,2469.797,2019-9-14T15:41:50Z
2019-09-14T13:44:30Z,42.805,6.029,13.2957,4.59953,2469.806,2019-9-14T15:44:53Z
2019-09-14T13:47:34Z,42.805,6.029,13.2953,4.59951,2469.806,2019-9-14T15:47:57Z
2019-09-14T13:50:37Z,42.805,6.029,13.2956,4.59954,2469.83,2019-9-14T15:51:00Z
2019-09-14T13:53:40Z,42.805,6.029,13.2957,4.59951,2469.783,2019-9-14T15:54:03Z
2019-09-14T13:56:43Z,42.805,6.029,13.2957,4.59952,2469.806,2019-9-14T15:57:06Z
2019-09-14T13:59:46Z,42.805,6.029,13.2956,4.59952,2469.783,2019-9-14T16:00:09Z
2019-09-14T14:02:50Z,42.805,6.029,13.2957,4.59952,2469.797,2019-9-14T16:03:13Z
2019-09-14T14:05:53Z,42.805,6.029,13.2958,4.59952,2469.806,2019-9-14T16:06:16Z
2019-09-14T14:08:56Z,42.805,6.029,13.2958,4.59953,2469.806,2019-9-14T16:09:19Z
2019-09-14T14:11:59Z,42.805,6.029,13.2957,4.59951,2469.806,2019-9-14T16:12:22Z
2019-09-14T14:15:03Z,42.805,6.029,13.2952,4.59951,2469.806,2019-9-14T16:15:26Z
2019-09-14T14:18:06Z,42.805,6.029,13.2957,4.59953,2469.806,2019-9-14T16:18:29Z
2019-09-14T14:21:09Z,42.805,6.029,13.2959,4.59953,2469.821,2019-9-14T16:21:32Z
2019-09-14T14:24:12Z,42.805,6.029,13.2956,4.59952,2469.83,2019-9-14T16:24:35Z
2019-09-14T14:27:16Z,42.805,6.029,13.2956,4.59954,2469.821,2019-9-14T16:27:39Z
2019-09-14T14:30:19Z,42.805,6.029,13.2957,4.59953,2469.806,2019-9-14T16:30:42Z
2019-09-14T14:33:22Z,42.805,6.029,13.2961,4.59951,2469.793,2019-9-14T16:33:45Z
2019-09-14T14:36:25Z,42.805,6.029,13.2957,4.59952,2469.834,2019-9-14T16:36:48Z
2019-09-14T14:39:28Z,42.805,6.029,13.2953,4.59952,2469.821,2019-9-14T16:39:51Z
2019-09-14T14:42:32Z,42.805,6.029,13.2957,4.59951,2469.821,2019-9-14T16:42:55Z
2019-09-14T14:45:35Z,42.805,6.029,13.2957,4.59952,2469.806,2019-9-14T16:45:58Z
2019-09-14T14:48:38Z,42.805,6.029,13.2953,4.59952,2469.806,2019-9-14T16:49:01Z
2019-09-14T14:51:41Z,42.805,6.029,13.2954,4.59951,2469.83,2019-9-14T16:52:04Z
2019-09-14T14:54:44Z,42.805,6.029,13.2953,4.59951,2469.821,2019-9-14T16:55:07Z
2019-09-14T14:57:48Z,42.805,6.029,13.2958,4.59952,2469.821,2019-9-14T16:58:11Z
2019-09-14T15:00:51Z,42.805,6.029,13.2958,4.59951,2469.83,2019-9-14T17:01:14Z
2019-09-14T15:03:54Z,42.805,6.029,13.2957,4.59955,2469.793,2019-9-14T17:04:17Z
2019-09-14T15:06:57Z,42.805,6.029,13.2957,4.59956,2469.821,2019-9-14T17:07:20Z
2019-09-14T15:10:00Z,42.805,6.029,13.2955,4.59955,2469.83,2019-9-14T17:10:23Z
2019-09-14T15:13:04Z,42.805,6.029,13.2958,4.59952,2469.83,2019-9-14T17:13:27Z